Orbital Elements at Epoch 2459200.5 (2020-Dec-17.0) TDB
Reference: JPL 16 (heliocentric ecliptic J2000)
Element | Value | Uncertainty (1-sigma) | Units |
e | .1984982121123279 | 4.9355e-08 | |
a | 3.185258118318992 | 2.3234e-08 | au |
q | 2.552990076716394 | 1.5747e-07 | au |
i | 19.67248342748635 | 5.6137e-06 | deg |
node | 253.4401563369238 | 1.5486e-05 | deg |
peri | 175.6932316630159 | 2.0785e-05 | deg |
M | 232.6454343149934 | 1.5757e-05 | deg |
tp | 2459935.060197407857 (2022-Dec-21.56019741) | 9.621e-05 | TDB |
period | 2076.420814946574 5.68 | 2.2719e-05 6.22e-08 | d yr |
n | .1733752606449684 | 1.897e-09 | deg/d |
Q | 3.81752615992159 | 2.7846e-08 | au |
|
| | Orbit Determination Parameters
Additional Information
|